�搅�E���B���j�^�v������
Date,Time,�搅(cps),���B(cps),���J
2024/06/02,00:00,7.9,4.4,�L
2024/06/02,00:10,8.0,4.6,��
2024/06/02,00:20,7.9,4.4,��
2024/06/02,00:30,7.9,4.5,��
2024/06/02,00:40,7.8,4.5,��
2024/06/02,00:50,8.0,4.3,��
2024/06/02,01:00,8.0,4.5,��
2024/06/02,01:10,8.0,4.6,��
2024/06/02,01:20,8.2,4.4,��
2024/06/02,01:30,8.0,4.5,��
2024/06/02,01:40,8.0,4.4,�L
2024/06/02,01:50,8.0,4.4,�L
2024/06/02,02:00,8.3,4.6,�L
2024/06/02,02:10,8.0,4.5,�L
2024/06/02,02:20,8.0,4.5,�L
2024/06/02,02:30,8.0,4.4,�L
2024/06/02,02:40,8.2,4.5,�L
2024/06/02,02:50,7.9,4.3,�L
2024/06/02,03:00,8.4,4.5,�L
2024/06/02,03:10,8.2,4.5,�L
2024/06/02,03:20,8.2,4.4,�L
2024/06/02,03:30,8.0,4.4,�L
2024/06/02,03:40,8.3,4.5,��
2024/06/02,03:50,8.0,4.6,��
2024/06/02,04:00,8.0,4.4,��
2024/06/02,04:10,8.2,4.4,��
2024/06/02,04:20,8.3,4.4,��
2024/06/02,04:30,8.4,4.5,��
2024/06/02,04:40,8.2,4.4,��
2024/06/02,04:50,8.0,4.7,��
2024/06/02,05:00,8.2,4.5,��
2024/06/02,05:10,8.0,4.5,��
2024/06/02,05:20,8.2,4.4,��
2024/06/02,05:30,8.2,4.4,��
2024/06/02,05:40,8.3,4.4,��
2024/06/02,05:50,8.1,4.3,��
2024/06/02,06:00,7.9,4.5,��
2024/06/02,06:10,7.9,4.5,��
2024/06/02,06:20,8.6,4.5,��
2024/06/02,06:30,8.3,4.3,��
2024/06/02,06:40,8.1,4.6,��
2024/06/02,06:50,8.3,4.8,��
2024/06/02,07:00,8.0,4.6,��
2024/06/02,07:10,8.2,4.5,��
2024/06/02,07:20,8.2,4.5,��
2024/06/02,07:30,8.1,4.5,��
2024/06/02,07:40,8.2,4.6,��
2024/06/02,07:50,8.0,4.5,��
2024/06/02,08:00,8.0,4.5,��
2024/06/02,08:10,8.0,4.5,��
2024/06/02,08:20,8.4,4.4,��
2024/06/02,08:30,8.2,4.4,��
2024/06/02,08:40,8.2,4.4,��
2024/06/02,08:50,8.1,4.5,��
2024/06/02,09:00,8.2,4.4,��
2024/06/02,09:10,8.1,4.4,��
2024/06/02,09:20,8.3,4.5,��
2024/06/02,09:30,8.0,4.5,��
2024/06/02,09:40,8.2,4.3,��
2024/06/02,09:50,8.0,4.5,��
2024/06/02,10:00,7.9,4.4,��
2024/06/02,10:10,8.1,4.6,��
2024/06/02,10:20,7.9,4.3,��
2024/06/02,10:30,7.9,4.5,��
2024/06/02,10:40,8.2,4.6,��
2024/06/02,10:50,8.0,4.4,��
2024/06/02,11:00,8.2,4.3,��
2024/06/02,11:10,8.0,4.4,��
2024/06/02,11:20,8.0,4.4,��
2024/06/02,11:30,8.0,4.6,��
2024/06/02,11:40,8.1,4.6,��
2024/06/02,11:50,8.1,4.5,��
2024/06/02,12:00,8.2,4.4,��
2024/06/02,12:10,8.2,4.4,��
2024/06/02,12:20,7.9,4.4,��
2024/06/02,12:30,7.9,4.4,��
2024/06/02,12:40,8.2,4.4,��
2024/06/02,12:50,8.1,4.5,��
2024/06/02,13:00,8.0,4.5,��
2024/06/02,13:10,8.0,4.4,��
2024/06/02,13:20,8.2,4.4,��
2024/06/02,13:30,8.2,4.6,��
2024/06/02,13:40,8.0,4.4,��
2024/06/02,13:50,8.1,4.4,��
2024/06/02,14:00,8.1,4.5,��
2024/06/02,14:10,8.1,4.4,��
2024/06/02,14:20,8.2,4.4,��
2024/06/02,14:30,8.1,4.4,��
2024/06/02,14:40,8.1,4.3,��
2024/06/02,14:50,8.4,4.5,��
2024/06/02,15:00,7.9,4.5,��
2024/06/02,15:10,8.0,4.5,��
2024/06/02,15:20,8.2,4.5,�L
2024/06/02,15:30,8.2,4.6,�L
2024/06/02,15:40,8.1,4.6,�L
2024/06/02,15:50,7.9,4.4,�L
2024/06/02,16:00,8.1,4.5,�L
2024/06/02,16:10,7.9,4.5,�L
2024/06/02,16:20,8.0,4.6,�L
2024/06/02,16:30,8.3,4.3,�L
2024/06/02,16:40,8.1,4.5,�L
2024/06/02,16:50,8.1,4.4,�L
2024/06/02,17:00,8.2,4.4,�L
2024/06/02,17:10,8.3,4.5,�L
2024/06/02,17:20,8.0,4.6,��
2024/06/02,17:30,8.2,4.4,��
2024/06/02,17:40,8.2,4.3,��
2024/06/02,17:50,8.2,4.4,�L
2024/06/02,18:00,8.1,4.5,�L
2024/06/02,18:10,8.1,4.5,�L
2024/06/02,18:20,8.2,4.5,�L
2024/06/02,18:30,8.1,4.5,�L
2024/06/02,18:40,8.4,4.4,�L
2024/06/02,18:50,8.1,4.6,�L
2024/06/02,19:00,8.5,4.5,�L
2024/06/02,19:10,8.2,4.4,�L
2024/06/02,19:20,8.4,4.5,�L
2024/06/02,19:30,8.5,4.5,�L
2024/06/02,19:40,8.4,4.5,�L
2024/06/02,19:50,8.5,4.6,�L
2024/06/02,20:00,8.6,4.6,�L
2024/06/02,20:10,8.5,4.7,�L
2024/06/02,20:20,8.9,4.7,�L
2024/06/02,20:30,8.5,4.7,�L
2024/06/02,20:40,8.7,4.7,�L
2024/06/02,20:50,8.8,4.7,�L
2024/06/02,21:00,9.0,4.7,�L
2024/06/02,21:10,8.6,4.5,�L
2024/06/02,21:20,8.8,4.7,�L
2024/06/02,21:30,8.8,4.7,�L
2024/06/02,21:40,8.7,4.6,�L
2024/06/02,21:50,8.7,4.7,�L
2024/06/02,22:00,8.6,4.7,�L
2024/06/02,22:10,8.8,4.5,�L
2024/06/02,22:20,8.7,4.5,�L
2024/06/02,22:30,8.8,4.6,�L
2024/06/02,22:40,8.7,4.6,�L
2024/06/02,22:50,8.9,4.4,�L
2024/06/02,23:00,8.7,4.7,�L
2024/06/02,23:10,9.1,4.8,�L
2024/06/02,23:20,9.1,4.8,�L
2024/06/02,23:30,9.2,4.8,�L
2024/06/02,23:40,9.3,5.0,�L
2024/06/02,23:50,9.2,4.9,��
